User: anonymous   Login
Location: Unspecified
(0.0000°N, 0.0000°E)
Time: 22:21:48
(UTC+00:00)
Language:

STPSAT 2 (USA 217) - Orbit

View from above orbital plane
View from above orbital plane
View from above satellite
View from above satellite

Ground track
Ground track

The orbit data is extracted from the following two-line orbital elements,

1 37222U 10062A   17310.72581663 0.00000000  00000-0  00000-0 0    08
2 37222  71.9691 286.0215 0008000 349.7773  10.2227 14.78326192    00
Epoch (UTC): 06 November 2017 17:25:10
Eccentricity: 0.0008000
inclination: 71.9691°
perigee height: 629 km
apogee height: 640 km
right ascension of ascending node: 286.0215°
argument of perigee: 349.7773°
revolutions per day: 14.78326192
mean anomaly at epoch: 10.2227°
orbit number at epoch: 0

The dashed part of the orbit path shows where the satellite is in the earth's shadow,  

DLR